#timestamp,LO_Frequency,Hit,StdDev 
1458691215.2,286046993.4,Y
1458691235.9,286046998.8,P
1458691255.7,286046998.1,N
1458691275.5,286046995.4,P
1458691295.4,286046995.7,N
1458691315.2,286046996.0,N
1458691335.0,286046994.2,Y
1458691336.0,286046994.2,P
1458691355.8,286047001.1,N
1458691375.6,286047001.1,N
1458691395.4,286046997.3,N
1458691415.3,286046997.8,N
1458691435.1,286046998.5,N
1458691455.8,286047000.8,N
1458691475.7,286046994.9,N
1458691495.5,286046999.4,N
1458691515.3,286047000.1,N
1458691535.2,286047001.0,N
1458691555.9,286047002.4,N
1458691575.7,286047004.2,N
1458691595.6,286046998.3,N
1458691615.4,286047000.8,N
1458691635.2,286047000.4,N
1458691655.1,286046996.9,N
1458691656.0,286046996.9,N
1458691675.8,286047000.6,N
1458691695.6,286046999.8,N
1458691715.4,286047000.8,N
1458691735.3,286046998.5,N
1458691755.1,286046997.1,N
1458691775.8,286046995.8,N
1458691795.7,286046997.7,N
1458691815.5,286046996.5,N
1458691835.3,286046995.9,N
1458691855.2,286046993.5,N
1458691875.9,286046990.2,Y
1458691895.7,286046992.7,P
1458691915.6,286046991.8,N
1458691935.4,286046990.2,P
1458691955.2,286046987.4,Y
1458691975.1,286046995.4,P
1458691976.0,286046995.4,P
1458691995.8,286046996.6,P
1458692015.6,286046994.9,Y
1458692035.5,286047002.4,P
1458692055.3,286046999.9,N
1458692075.1,286047001.5,N
1458692095.9,286047004.1,N
1458692115.7,286047001.7,N
1458692135.5,286047003.6,N
1458692155.4,286047000.8,N
1458692175.2,286046999.8,N
1458692195.0,286047002.6,N
1458692195.9,286047002.6,N
1458692215.8,286047000.3,N
1458692235.6,286047000.8,N
1458692255.4,286047000.4,N
1458692275.2,286047004.8,N
1458692295.1,286047002.4,N
1458692296.0,286047002.4,N
1458692315.8,286047003.4,N
1458692335.6,286047002.7,N
1458692355.5,286046999.3,N
1458692375.3,286047003.8,N
1458692395.1,286046998.6,N
1458692415.9,286047000.8,N
1458692435.7,286047000.3,N
1458692455.5,286046998.7,N
1458692475.4,286047002.5,N
1458692495.2,286046996.5,N
1458692515.0,286046997.5,N
1458692515.9,286046997.5,N
1458692535.8,286046997.6,N
1458692555.6,286046999.2,N
1458692575.4,286047002.8,N
1458692595.2,286047002.8,N
1458692615.1,286046997.5,N
1458692616.0,286046997.5,N
1458692635.8,286046997.3,N
1458692655.6,286046997.2,N
1458692675.5,286046996.6,N
1458692695.3,286046997.8,N
1458692715.1,286046998.0,N
1458692735.9,286046992.1,Y
1458692755.7,286046996.3,P
1458692775.5,286046995.1,N
1458692795.4,286046995.4,N
1458692815.2,286046994.1,Y
1458692835.0,286046993.6,P
1458692836.0,286046993.6,P
1458692855.8,286046994.4,P
1458692875.6,286046992.8,Y
1458692895.5,286046998.7,P
1458692915.3,286047002.7,N
1458692935.1,286047002.2,N
1458692955.8,286047000.7,N
1458692975.7,286047001.0,N
1458692995.5,286046998.7,N
1458693015.3,286046998.1,N
1458693035.2,286047000.6,N
1458693055.0,286046998.3,N
1458693055.9,286046998.3,N
1458693075.7,286046998.6,N
1458693095.6,286047001.7,N
1458693115.4,286047001.6,N
1458693135.2,286047001.6,N
1458693155.1,286047002.7,N
1458693156.0,286047002.7,N
1458693175.8,286047002.7,N
1458693195.6,286047002.4,N
1458693215.5,286047000.4,N
1458693235.3,286046997.3,N
1458693255.1,286046997.2,N
1458693275.9,286046996.5,N
1458693295.7,286046996.6,N
1458693315.5,286047002.4,N
1458693335.3,286047000.9,N
1458693355.2,286047001.2,N
1458693375.0,286046998.1,N
1458693375.9,286046998.1,N
1458693395.7,286047002.7,N
1458693415.6,286047005.5,N
1458693435.4,286047003.6,N
1458693455.2,286047002.6,N
1458693475.1,286047002.2,N
1458693476.0,286047002.2,N
1458693495.8,286047003.1,N
1458693515.6,286047003.9,N
1458693535.5,286047003.5,N
1458693555.3,286047007.2,N
1458693575.1,286047007.3,N
1458693595.9,286047008.3,N
1458693615.7,286047010.8,Y
1458693635.5,286047009.6,P
1458693655.4,286047012.4,P
1458693675.2,286047011.9,N
1458693695.0,286047011.0,N
1458693695.9,286047011.0,N
1458693715.8,286047014.5,Y
1458693735.6,286047008.2,P
1458693755.4,286047008.7,P
1458693775.3,286047009.9,P
1458693795.1,286047013.5,Y
1458693815.8,286047001.5,P
1458693835.7,286047005.6,N
1458693855.5,286047005.9,N
1458693875.3,286047004.2,N
1458693895.2,286047007.2,N
1458693915.9,286047006.0,N
1458693935.7,286047003.1,N
1458693955.6,286047005.3,N
1458693975.4,286047005.7,N
1458693995.2,286047007.8,Y
1458694015.1,286047005.4,P
1458694016.0,286047005.4,P
1458694035.8,286047003.5,P
1458694055.6,286047006.3,Y
1458694075.5,286047001.8,P
1458694095.3,286046999.7,N
1458694115.1,286047000.4,N
1458694135.9,286047000.3,N
1458694155.7,286046998.8,N
1458694175.5,286046998.1,N
1458694195.3,286046999.7,N
1458694215.2,286047000.7,N
1458694235.0,286046998.9,N
1458694235.9,286046998.9,N
1458694255.7,286046998.4,N
1458694275.6,286046998.7,N
1458694295.4,286047000.5,N
1458694315.2,286047003.9,N
1458694335.1,286047001.3,N
1458694336.0,286047001.3,N
1458694355.8,286047005.6,Y
1458694375.6,286047004.3,P
1458694395.5,286047003.8,N
1458694415.3,286047002.9,N
1458694435.1,286047005.8,Y
1458694455.9,286047002.2,P
1458694475.7,286047001.3,P
1458694495.5,286047003.2,P
1458694515.4,286047006.1,Y
1458694535.2,286047001.5,P
1458694555.0,286047005.2,P
1458694555.9,286047005.2,P
1458694575.8,286047001.9,N
1458694595.6,286047003.4,N
1458694615.4,286047002.8,N
1458694635.3,286046998.6,N
1458694655.1,286046998.2,N
1458694656.0,286046998.2,N
1458694675.8,286047001.7,N
1458694695.7,286047002.4,N
1458694715.5,286047004.2,N
1458694735.3,286047003.9,N
1458694755.2,286047003.7,N
1458694775.9,286047002.6,N
1458694795.7,286047004.0,N
